Regional Weather Roundup
Issued by NWS

Home | Current Version | Previous Version | Text Only | Print | Product List | Glossary Off
Versions: 1 2 3 4 5 6 7 8 9 10 11 12 13 14 15 16 17 18 19 20 21 22 23 24 25 26 27 28 29 30 31 32 33 34 35 36 37 38 39 40 41 42 43 44 45 46 47 48 49 50

000
ASUS45 KBOU 041207
RWRCO

WEATHER ROUNDUP FOR COLORADO
NATIONAL WEATHER SERVICE DENVER/BOULDER CO
600 AM MDT TUE AUG 04 2015

NOTE: "FAIR" INDICATES FEW OR NO CLOUDS BELOW 12000 FEET WITH NO
SIGNIFICANT WEATHER AND/OR OBSTRUCTIONS TO VISIBILITY.

COZ001>005-013-030-031-041300-
...NORTHWEST COLORADO...

CITY           SKY/WX    TMP DP  RH WIND       PRES   REMARKS
CRAIG          PTCLDY    47  45  93 CALM      30.21R
HAYDEN         PTCLDY    48  45  87 CALM      30.22R
MEEKER         CLEAR     48  44  86 CALM      30.23R
MOUNT WERNER   NOT AVBL
STEAMBOAT SPGS   N/A     50  49  99 CALM      30.24R VSB 1/2
WALDEN         PTCLDY    52  41  66 S10       30.25S
$$

COZ006>008-011-041300-
...WEST CENTRAL VALLEYS...

CITY           SKY/WX    TMP DP  RH WIND       PRES   REMARKS
GRAND JUNCTION CLEAR     59  49  69 NE5       30.13R
MONTROSE       CLEAR     57  51  80 CALM      30.22R
EAGLE          MOCLDY    48  45  87 CALM      30.25R
RIFLE          CLEAR     55  51  86 CALM      30.18R
DELTA          RAIN      60  50  70 E9        30.17S
NUCLA          CLEAR     54  46  76 CALM      30.25S
$$

COZ017>023-064>068-041300-
...SOUTHWEST COLORADO...

CITY           SKY/WX    TMP DP  RH WIND       PRES   REMARKS
DURANGO        PTCLDY    52  45  77 E5        30.26R
CORTEZ         CLEAR     53  51  93 CALM      30.21R
PAGOSA SPRINGS PTCLDY    49  44  81 CALM      30.35R
TELLURIDE      CLEAR     47  43  86 SE6       30.46R
WOLF CREEK PAS NOT AVBL
$$

COZ009-010-012-014-032>034-037-058>063-041300-
...CENTRAL COLORADO...

CITY           SKY/WX    TMP DP  RH WIND       PRES   REMARKS
ASPEN          CLEAR     47  42  83 S5        30.29R
BUENA VISTA    CLEAR     48  42  79 CALM      30.30S
COPPER MTN     CLEAR     46  32  57 SW14G25   30.53R
BERTHOUD PASS  FAIR      37  28  70 NW35G47   30.49F
COTTONWOOD PAS CLEAR     54  36  50 W18G28    30.40S
GUNNISON       CLEAR     46  45  93 NE3       30.37R
KREMMLING      CLEAR     41  36  81 CALM      30.28R
LEADVILLE      CLEAR     41  38  89 VRB3      30.40R
MONARCH PASS   CLEAR     37  34  87 W30       30.64R
SALIDA         CLEAR     53  48  83 NW6       30.35R
SUNLIGHT       CLEAR     45  41  87 SW3       30.49S
WILKERSON PASS NOT AVBL
$$

COZ069>075-041300-
...SAN LUIS VALLEY/SANGRE DE CRISTO MOUNTAINS...

CITY           SKY/WX    TMP DP  RH WIND       PRES   REMARKS
ALAMOSA        CLEAR     44  42  93 CALM      30.31S
LA VETA PASS   CLEAR     45  41  87 MISG      30.45S
SAGUACHE       CLEAR     50  43  76 N5        30.34R
$$

COZ035-036-038>040-041300-
...NORTHERN COLORADO FRONT RANGE...

CITY           SKY/WX    TMP DP  RH WIND       PRES   REMARKS
DENVER INTL AP PTCLDY    61  47  59 W10       30.03S
DMNS CITY PARK   N/A     60  49  67 E8        30.04S
AURORA         MOCLDY    58  48  67 S9        30.06F
FRONT RANGE AP NOT AVBL
ERIE MUNI ARPT MOCLDY    56  51  85 CALM      30.03S
BOULDER MUN AP MOCLDY    57  52  82 CALM      30.03S
CENTENNIAL     MOCLDY    61  46  57 E3        30.08R
BROOMFIELD     MOCLDY    64  43  45 W3        30.06S
FORT COLLINS   PTCLDY    57  54  88 CALM      30.02F
LONGMONT       PTCLDY    58  52  79 CALM      30.04S
$$

COZ041-046-047-076>085-087-088-041300-
...PIKES PEAK/PALMER DIVIDE AND SOUTHERN FOOTHILLS...

CITY           SKY/WX    TMP DP  RH WIND       PRES   REMARKS
COLO. SPRINGS  PTCLDY    58  47  66 N7        30.12F
A. F. ACADEMY  PTCLDY    56  48  74 VRB6      30.14S
ELLICOTT       PTCLDY   N/A N/A N/A CALM      30.10F
FALCON         PTCLDY    59  43  55 W9        30.17S
FORT CARSON    PTCLDY    53  50  87 N8        30.09S
LIMON          CLEAR     49  47  93 N6        30.04F
MONUMENT HILL  PTCLDY    57  41  54 SW10      30.17S
TRINIDAD       CLEAR     58  54  86 W15       30.13F
$$

COZ042>045-048>051-090-091-041300-
...NORTHEAST COLORADO...

CITY           SKY/WX    TMP DP  RH WIND       PRES   REMARKS
GREELEY ARPT   CLEAR     54  48  82 CALM      30.02S
AKRON          CLEAR     59  54  83 SW7       29.99S
BURLINGTON     CLEAR     63  59  87 S10       29.99S
WRAY           PTCLDY    57  53  88 N7        29.96S
STERLING       CLEAR     54  52  94 CALM      29.96R
HOLYOKE        PTCLDY    59  54  82 CALM      29.98R
FORT MORGAN    CLEAR     52  49  89 NW9       30.00R
$$

COZ086-089-092>099-041300-
...SOUTHEAST COLORADO...

CITY           SKY/WX    TMP DP  RH WIND       PRES   REMARKS
PUEBLO         CLEAR     60  55  83 W9        30.04S
LA JUNTA       CLEAR     60  57  89 W6        30.02S
LAMAR          CLEAR     59  58  96 S6        29.99S
SPRINGFIELD      N/A     56  55  97 N7        30.06R
$$


USA.gov is the U.S. government's official web portal to all federal, state and local government web resources and services.